Madison, WI

2:27 PM CDT on September 22, 2019 (GMT -0500)
Dane County Regional-Truax

Weather History for KMSN - July, 2019

Change the Weather History Date:

Friday, July 19, 2019

  Actual Average Record
Temperature  
Mean Temperature 82 °F 72 °F  
Max Temperature 93 °F 82 °F 97 °F (1964)
Min Temperature 70 °F 61 °F 49 °F (2003)
Degree Days  
Heating Degree Days 0 0  
Month to date heating degree days 0 0  
Since 1 June heating degree days 42 60  
Since 1 July heating degree days 0 0  
Cooling Degree Days 17 7  
Month to date cooling degree days 218 131  
Year to date cooling degree days 336 281  
Since 1 June cooling degree days 316 251  
Growing Degree Days 32 (Base 50)    
Moisture  
Dew Point 72 °F    
Average Humidity 74    
Maximum Humidity 85    
Minimum Humidity 62    
Precipitation  
Precipitation 1.91 in 0.13 in 3.65 in (1950)
Month to date precipitation 5.37 2.64  
Year to date precipitation 26.34 19.01  
Snow  
Snow 0.00 in 0.00 in 0.00 in (2018)
Month to date snowfall 0.0 0.0  
Since 1 June snowfall 0.0 0.0  
Since 1 July snowfall 0.0 0.0  
Snow Depth 0.00 in    
Sea Level Pressure  
Sea Level Pressure 29.76 in    
Wind  
Wind Speed 8 mph (SSW)    
Max Wind Speed 32 mph    
Max Gust Speed 44 mph    
Visibility 8 miles    
Events Rain , Thunderstorm    
T = Trace of Precipitation, MM = Missing Value Source: NWS Daily Summary

Daily Weather History Graph

Daily Weather History Graph

Search for Another Location

Airport or City:

Astronomy

Jul. 19, 2019 Rise Set
Actual Time 5:34 AM CDT 8:32 PM CDT
Civil Twilight 5:00 AM CDT 9:05 PM CDT
Nautical Twilight 4:17 AM CDT 9:48 PM CDT
Astronomical Twilight 3:27 AM CDT 10:39 PM CDT
Moon 10:26 PM CDT (7/19) 8:03 AM CDT (7/19)
Length of Visible Light 16h 04m
Length of Day
14h 57m
Waning Gibbous, 93% of the Moon is Illuminated
Jul 19
Waning Gibbous
Jul 24
Last Quarter
Jul 31
New
Aug 7
First Quarter
Aug 15
Full

Hourly Weather History & Observations

Time (CDT) Temp. Heat Index Dew Point Humidity Pressure Visibility Wind Dir Wind Speed Gust Speed Precip Events Conditions
12:53 AM 82.9 °F 91.8 °F 77.0 °F 82% 29.70 in 10.0 mi SSW 6.9 mph - N/A   Clear
1:53 AM 82.9 °F 91.8 °F 77.0 °F 82% 29.71 in 10.0 mi South 8.1 mph - N/A Thunderstorm Thunderstorm
2:30 AM 73.9 °F - 70.0 °F 87% 29.79 in 1.5 mi Variable 5.8 mph 19.6 mph 0.16 in Rain , Thunderstorm Heavy Thunderstorms and Rain
2:33 AM 73.9 °F - 70.0 °F 87% 29.80 in 1.0 mi NW 8.1 mph 19.6 mph 0.28 in Rain , Thunderstorm Heavy Thunderstorms and Rain
2:35 AM 73.0 °F - 70.0 °F 90% 29.80 in 0.8 mi NW 9.2 mph 19.6 mph 0.36 in Rain , Thunderstorm Heavy Thunderstorms and Rain
2:53 AM 73.9 °F - 71.1 °F 91% 29.78 in 2.5 mi SSE 8.1 mph - 0.63 in Rain , Thunderstorm Heavy Thunderstorms and Rain
3:00 AM 73.9 °F - 70.0 °F 87% 29.79 in 3.0 mi ESE 6.9 mph - 0.04 in Rain , Thunderstorm Heavy Thunderstorms and Rain
3:21 AM 75.0 °F - 70.0 °F 84% 29.76 in 10.0 mi South 5.8 mph - 0.08 in Rain , Thunderstorm Light Rain
3:35 AM 73.0 °F - 70.0 °F 90% 29.77 in 2.5 mi Variable 5.8 mph - 0.12 in Rain , Thunderstorm Heavy Thunderstorms and Rain
3:46 AM 73.9 °F - 71.1 °F 91% 29.76 in 3.0 mi South 6.9 mph - 0.25 in Rain , Thunderstorm Thunderstorms and Rain
3:53 AM 73.9 °F - 71.1 °F 91% 29.74 in 10.0 mi South 12.7 mph - 0.25 in Rain , Thunderstorm Light Rain
4:13 AM 73.9 °F - 71.1 °F 91% 29.79 in 10.0 mi NNW 13.8 mph 21.9 mph 0.00 in Rain , Thunderstorm Light Thunderstorms and Rain
4:29 AM 73.0 °F - 70.0 °F 90% 29.81 in 1.8 mi NNW 13.8 mph 21.9 mph 0.19 in Rain , Thunderstorm Heavy Thunderstorms and Rain
4:39 AM 72.0 °F - 69.1 °F 91% 29.82 in 1.0 mi North 11.5 mph 25.3 mph 0.53 in Rain , Thunderstorm Heavy Thunderstorms and Rain
4:50 AM 69.8 °F - 66.2 °F 88% 29.82 in 2.0 mi NNE 25.3 mph 31.1 mph 0.79 in Rain , Thunderstorm Thunderstorms and Rain
4:53 AM 71.1 °F - 66.0 °F 84% 29.81 in 4.0 mi North 20.7 mph 31.1 mph 0.80 in Rain , Thunderstorm Thunderstorms and Rain
5:02 AM 70.0 °F - 66.9 °F 90% 29.82 in 3.0 mi NE 15.0 mph - 0.08 in Rain , Thunderstorm Heavy Thunderstorms and Rain
5:26 AM 71.1 °F - 66.9 °F 87% 29.78 in 10.0 mi SSE 12.7 mph - 0.23 in Rain , Thunderstorm Light Rain
5:35 AM 71.1 °F - 66.9 °F 87% 29.78 in 10.0 mi South 16.1 mph - 0.23 in Rain Light Rain
5:53 AM 71.1 °F - 66.9 °F 87% 29.78 in 10.0 mi SSW 4.6 mph - 0.23 in   Overcast
6:53 AM 72.0 °F - 66.9 °F 84% 29.74 in 10.0 mi South 17.3 mph 24.2 mph N/A   Overcast
7:36 AM 75.9 °F - 66.9 °F 74% 29.74 in 10.0 mi West 16.1 mph 28.8 mph N/A   Overcast
7:53 AM 77.0 °F - 66.9 °F 71% 29.74 in 10.0 mi Variable 4.6 mph 20.7 mph N/A   Mostly Cloudy
8:23 AM 78.1 °F - 68.0 °F 71% 29.76 in 10.0 mi Calm Calm - N/A   Mostly Cloudy
8:53 AM 79.0 °F - 70.0 °F 74% 29.76 in 10.0 mi Calm Calm - N/A   Mostly Cloudy
9:53 AM 80.1 °F 83.2 °F 70.0 °F 71% 29.78 in 10.0 mi South 5.8 mph - N/A   Overcast
10:32 AM 82.9 °F 88.8 °F 73.0 °F 72% 29.79 in 10.0 mi Variable 4.6 mph - N/A   Mostly Cloudy
10:53 AM 84.0 °F 91.2 °F 73.9 °F 72% 29.78 in 10.0 mi Variable 3.5 mph - N/A   Mostly Cloudy
11:53 AM 86.0 °F 96.0 °F 75.9 °F 72% 29.78 in 10.0 mi SSW 6.9 mph - N/A   Partly Cloudy
12:53 PM 89.1 °F 100.2 °F 75.9 °F 65% 29.78 in 10.0 mi WSW 5.8 mph - N/A   Partly Cloudy
1:53 PM 91.0 °F 106.2 °F 78.1 °F 66% 29.77 in 10.0 mi WSW 5.8 mph - N/A   Scattered Clouds
2:53 PM 91.9 °F 105.9 °F 77.0 °F 62% 29.76 in 10.0 mi SW 8.1 mph - N/A   Scattered Clouds
3:53 PM 93.0 °F 108.9 °F 78.1 °F 62% 29.74 in 10.0 mi SSW 9.2 mph 20.7 mph N/A   Scattered Clouds
4:53 PM 93.0 °F 108.9 °F 78.1 °F 62% 29.74 in 10.0 mi SSW 9.2 mph - N/A   Scattered Clouds
5:53 PM 91.9 °F 107.3 °F 78.1 °F 64% 29.72 in 10.0 mi SSW 10.4 mph - N/A   Scattered Clouds
6:53 PM 90.0 °F 104.5 °F 78.1 °F 68% 29.70 in 10.0 mi South 11.5 mph - N/A   Partly Cloudy
7:53 PM 89.1 °F 103.2 °F 78.1 °F 70% 29.72 in 10.0 mi South 9.2 mph - N/A   Scattered Clouds
8:53 PM 88.0 °F 103.1 °F 79.0 °F 75% 29.71 in 10.0 mi SSW 10.4 mph - N/A   Mostly Cloudy
9:53 PM 88.0 °F 101.3 °F 78.1 °F 72% 29.74 in 10.0 mi SSW 11.5 mph - N/A   Mostly Cloudy
10:53 PM 87.1 °F 99.8 °F 78.1 °F 74% 29.76 in 10.0 mi SSW 6.9 mph 18.4 mph N/A   Overcast
11:53 PM 86.0 °F 98.3 °F 78.1 °F 77% 29.78 in 10.0 mi South 5.8 mph - N/A   Clear